BAW92 LEPA-EIDW

Flight info

Callsign BAW92
Flight time N/A
Altitude 34000
Route DRAGO5A DRAGO N863 GIROM/N0486F380 DCT AGN DCT SECHE DCT UVELI DCT CNA DCT MANAK UY110 TIRAV/N0493F400 UT183 BAGAD DCT DOLUR DCT UPCAB DCT IJALA DCT EVRIN DCT BUNED BUNED4L
Aircraft B742/H-SDFHIRWXY/L

Departure

Time 2026-05-03 21:09
Airport Palma de Mallorca Airport (LEPA)

Arrival

Time N/A
Airport Dublin Airport (EIDW)
Time Latitude Longitude Altitude Speed Heading
2026-05-03 20:49 39.55510 2.73428 25 ft 0 kts 175°
2026-05-03 21:00 39.55495 2.73430 26 ft 6 kts 172°
2026-05-03 21:00 39.55437 2.73452 28 ft 11 kts 162°
2026-05-03 21:01 39.55412 2.73464 29 ft 0 kts 156°
2026-05-03 21:01 39.55361 2.73496 32 ft 18 kts 153°
2026-05-03 21:01 39.55261 2.73568 36 ft 16 kts 149°
2026-05-03 21:02 39.55215 2.73604 37 ft 9 kts 147°
2026-05-03 21:02 39.55179 2.73653 39 ft 10 kts 97°
2026-05-03 21:02 39.55166 2.73778 42 ft 10 kts 59°
2026-05-03 21:02 39.55179 2.73844 43 ft 3 kts 124°
2026-05-03 21:03 39.55140 2.73879 43 ft 15 kts 149°
2026-05-03 21:03 39.55018 2.73975 43 ft 21 kts 150°
2026-05-03 21:03 39.54851 2.74108 38 ft 25 kts 149°
2026-05-03 21:03 39.54775 2.74081 38 ft 10 kts 233°
2026-05-03 21:04 39.54737 2.74014 39 ft 7 kts 236°
2026-05-03 21:04 39.54681 2.73899 39 ft 24 kts 238°
2026-05-03 21:04 39.54558 2.73642 39 ft 39 kts 240°
2026-05-03 21:04 39.54442 2.73395 39 ft 22 kts 240°
2026-05-03 21:05 39.54367 2.73228 39 ft 20 kts 240°
2026-05-03 21:05 39.54355 2.73201 38 ft 0 kts 240°
2026-05-03 21:05 39.54328 2.73146 38 ft 13 kts 236°
2026-05-03 21:06 39.54257 2.73061 36 ft 12 kts 183°
2026-05-03 21:06 39.54250 2.73062 36 ft 0 kts 158°
2026-05-03 21:07 39.54226 2.73082 37 ft 12 kts 133°
2026-05-03 21:07 39.54205 2.73276 38 ft 15 kts 91°
2026-05-03 21:07 39.54213 2.73369 38 ft 0 kts 57°
2026-05-03 21:08 39.54251 2.73444 38 ft 37 kts 58°
2026-05-03 21:08 39.54563 2.74106 37 ft 131 kts 58°
2026-05-03 21:09 39.55164 2.75382 237 ft 191 kts 59°
2026-05-03 21:09 39.55842 2.76820 1002 ft 189 kts 59°
2026-05-03 21:09 39.56550 2.78253 1723 ft 192 kts 59°
2026-05-03 21:09 39.57301 2.79714 2403 ft 198 kts 59°
2026-05-03 21:10 39.58057 2.81189 3101 ft 201 kts 59°
2026-05-03 21:10 39.58824 2.82713 3800 ft 204 kts 59°
2026-05-03 21:10 39.59594 2.84262 4449 ft 208 kts 59°
2026-05-03 21:10 39.60370 2.85840 5074 ft 212 kts 59°
2026-05-03 21:11 39.61153 2.87445 5545 ft 208 kts 59°
2026-05-03 21:11 39.61919 2.89009 5928 ft 206 kts 59°
2026-05-03 21:11 39.62671 2.90543 6392 ft 197 kts 59°
2026-05-03 21:11 39.63390 2.92001 6758 ft 193 kts 56°
2026-05-03 21:12 39.64175 2.93479 7008 ft 206 kts 56°
2026-05-03 21:12 39.65034 2.95092 7525 ft 222 kts 56°
2026-05-03 21:12 39.65888 2.96718 7888 ft 222 kts 56°
2026-05-03 21:12 39.66762 2.98393 8169 ft 225 kts 56°
2026-05-03 21:13 39.67648 3.00093 8488 ft 227 kts 56°
2026-05-03 21:13 39.68538 3.01808 8805 ft 230 kts 56°
2026-05-03 21:13 39.69429 3.03539 9131 ft 231 kts 56°
2026-05-03 21:13 39.70324 3.05280 9433 ft 233 kts 56°
2026-05-03 21:14 39.71230 3.07041 9746 ft 235 kts 56°
2026-05-03 21:14 39.72162 3.08787 10039 ft 236 kts 47°
2026-05-03 21:14 39.73521 3.09901 10235 ft 230 kts
2026-05-03 21:14 39.75072 3.09993 10508 ft 224 kts 353°
2026-05-03 21:15 39.76629 3.09986 10835 ft 226 kts 353°
2026-05-03 21:15 39.78235 3.09982 11211 ft 233 kts 353°
2026-05-03 21:15 39.79878 3.09978 11652 ft 237 kts 353°
2026-05-03 21:15 39.81533 3.09975 12114 ft 239 kts 353°
2026-05-03 21:16 39.83182 3.09973 12573 ft 241 kts 353°
2026-05-03 21:16 39.84871 3.09970 13023 ft 243 kts 353°
2026-05-03 21:16 39.86556 3.09967 13475 ft 244 kts 353°
2026-05-03 21:16 39.88265 3.09965 13925 ft 244 kts 353°
2026-05-03 21:17 39.90002 3.09957 14077 ft 260 kts 353°
2026-05-03 21:17 39.91228 3.09950 14126 ft 272 kts 353°
2026-05-03 21:17 39.93890 3.09935 14226 ft 297 kts 354°
2026-05-03 21:17 39.96002 3.09862 14288 ft 305 kts 348°
2026-05-03 21:18 39.97969 3.09082 14342 ft 286 kts 325°
2026-05-03 21:18 39.99328 3.07345 14415 ft 276 kts 295°
2026-05-03 21:18 39.99908 3.05027 14662 ft 267 kts 277°
2026-05-03 21:18 40.00134 3.02603 14802 ft 269 kts 271°
2026-05-03 21:19 40.00230 3.00191 14910 ft 266 kts 269°
2026-05-03 21:19 40.00280 2.97787 15018 ft 266 kts 268°
2026-05-03 21:19 40.00311 2.95328 15136 ft 280 kts 268°
2026-05-03 21:19 40.00337 2.92751 15342 ft 289 kts 268°
2026-05-03 21:20 40.00362 2.90083 15560 ft 298 kts 268°
2026-05-03 21:20 40.00387 2.87372 15966 ft 299 kts 268°
2026-05-03 21:20 40.00411 2.84695 16375 ft 299 kts 268°
2026-05-03 21:20 40.00432 2.81952 16794 ft 300 kts 268°
2026-05-03 21:21 40.00452 2.79243 17137 ft 303 kts 268°
2026-05-03 21:21 40.00473 2.76492 17486 ft 305 kts 268°
2026-05-03 21:21 40.00496 2.73687 17683 ft 317 kts 269°
2026-05-03 21:21 40.00884 2.70838 18225 ft 326 kts 287°
2026-05-03 21:22 40.01960 2.68288 19170 ft 327 kts 304°
2026-05-03 21:22 40.03621 2.66197 19816 ft 337 kts 320°
2026-05-03 21:22 40.05576 2.64485 20348 ft 344 kts 326°
2026-05-03 21:22 40.07610 2.62888 20894 ft 343 kts 317°
2026-05-03 21:23 40.09240 2.60685 21449 ft 337 kts 300°
2026-05-03 21:23 40.10543 2.58122 21990 ft 340 kts 304°
2026-05-03 21:23 40.12264 2.55967 22482 ft 352 kts 321°
2026-05-03 21:23 40.14356 2.54262 22986 ft 354 kts 319°
2026-05-03 21:24 40.16121 2.52114 23397 ft 350 kts 303°
2026-05-03 21:24 40.17344 2.49371 23831 ft 347 kts 287°
2026-05-03 21:24 40.18152 2.46400 24294 ft 348 kts 287°
2026-05-03 21:24 40.19241 2.43591 24732 ft 357 kts 302°
2026-05-03 21:25 40.20872 2.41087 25190 ft 363 kts 309°
2026-05-03 21:25 40.22477 2.38554 25655 ft 359 kts 299°
2026-05-03 21:25 40.23707 2.35726 26136 ft 356 kts 292°
2026-05-03 21:25 40.24791 2.32809 26615 ft 356 kts 291°
2026-05-03 21:26 40.25889 2.29912 27092 ft 356 kts 293°
2026-05-03 21:26 40.27037 2.27068 27514 ft 358 kts 294°
2026-05-03 21:26 40.28234 2.24218 27833 ft 361 kts 295°
2026-05-03 21:26 40.29482 2.21306 28184 ft 363 kts 295°
2026-05-03 21:27 40.30731 2.18414 28528 ft 365 kts 295°
2026-05-03 21:27 40.31974 2.15536 28862 ft 367 kts 295°
2026-05-03 21:27 40.33247 2.12591 29206 ft 369 kts 295°
2026-05-03 21:27 40.34510 2.09666 29497 ft 371 kts 295°
2026-05-03 21:28 40.35778 2.06725 29771 ft 374 kts 295°
2026-05-03 21:28 40.37049 2.03774 30070 ft 375 kts 295°
2026-05-03 21:28 40.38339 2.00776 30395 ft 376 kts 295°
2026-05-03 21:28 40.39615 1.97808 30717 ft 377 kts 295°
2026-05-03 21:29 40.40896 1.94826 31006 ft 378 kts 295°
2026-05-03 21:29 40.42191 1.91809 31319 ft 379 kts 295°
2026-05-03 21:29 40.43484 1.88790 31559 ft 381 kts 295°
2026-05-03 21:29 40.44777 1.85773 31850 ft 382 kts 295°
2026-05-03 21:30 40.46081 1.82725 32160 ft 382 kts 295°
2026-05-03 21:30 40.47376 1.79696 32368 ft 385 kts 295°
2026-05-03 21:30 40.48676 1.76651 32613 ft 386 kts 295°
2026-05-03 21:30 40.49993 1.73563 32906 ft 386 kts 295°
2026-05-03 21:31 40.51295 1.70509 33169 ft 386 kts 295°
2026-05-03 21:31 40.52601 1.67441 33439 ft 385 kts 295°
2026-05-03 21:31 40.53915 1.64355 33697 ft 383 kts 295°
2026-05-03 21:31 40.55193 1.61345 33913 ft 382 kts 294°
2026-05-03 21:32 40.57799 1.55196 34002 ft 386 kts 295°
2026-05-03 21:32 40.60395 1.49068 33845 ft 386 kts 295°
2026-05-03 21:33 40.61977 1.46171 33649 ft 394 kts 309°
2026-05-03 21:33 40.64115 1.43853 33489 ft 403 kts 324°
2026-05-03 21:33 40.69336 1.40907 33403 ft 415 kts 335°
2026-05-03 21:34 40.74743 1.38301 33398 ft 410 kts 334°
2026-05-03 21:34 40.80062 1.35577 33357 ft 411 kts 334°
2026-05-03 21:35 40.85378 1.32757 33328 ft 413 kts 333°
2026-05-03 21:35 40.90673 1.29936 33287 ft 413 kts 333°
2026-05-03 21:36 40.93415 1.28483 33273 ft 426 kts 333°
2026-05-03 21:36 40.96207 1.27005 33260 ft 441 kts 334°
2026-05-03 21:36 40.99074 1.25489 33239 ft 455 kts 334°
2026-05-03 21:36 41.02060 1.23910 33228 ft 470 kts 334°
2026-05-03 21:37 41.05151 1.22272 33216 ft 484 kts 334°
2026-05-03 21:37 41.08334 1.20588 33248 ft 497 kts 334°
2026-05-03 21:37 41.14711 1.17418 33283 ft 476 kts 342°
2026-05-03 21:38 41.17932 1.16679 33188 ft 465 kts 349°
2026-05-03 21:38 41.21096 1.16291 33042 ft 453 kts 352°
2026-05-03 21:38 41.24182 1.16014 32826 ft 444 kts 352°
2026-05-03 21:38 41.27314 1.15740 32616 ft 458 kts 352°
2026-05-03 21:39 41.30523 1.15435 32674 ft 469 kts 352°
2026-05-03 21:39 41.33816 1.15104 32776 ft 479 kts 352°
2026-05-03 21:39 41.37170 1.14759 32882 ft 490 kts 352°
2026-05-03 21:39 41.40604 1.14401 32989 ft 500 kts 352°
2026-05-03 21:40 41.44103 1.14034 33092 ft 510 kts 352°
2026-05-03 21:40 41.47694 1.13657 33198 ft 520 kts 352°
2026-05-03 21:40 41.51326 1.13276 33304 ft 521 kts 352°
2026-05-03 21:40 41.54888 1.12908 33748 ft 505 kts 352°
2026-05-03 21:41 41.58399 1.12543 34261 ft 506 kts 352°
2026-05-03 21:41 41.61916 1.12171 34763 ft 508 kts 352°
2026-05-03 21:41 41.65418 1.11801 35375 ft 503 kts 352°
2026-05-03 21:41 41.68856 1.11439 35998 ft 498 kts 351°
2026-05-03 21:42 41.72293 1.11076 36656 ft 492 kts 351°
2026-05-03 21:42 41.75697 1.10716 37442 ft 485 kts 351°
2026-05-03 21:42 41.79026 1.10361 37812 ft 486 kts 351°
2026-05-03 21:42 41.82446 1.09993 37975 ft 491 kts 351°
2026-05-03 21:43 41.89299 1.09255 38008 ft 499 kts 351°
2026-05-03 21:43 41.96272 1.08509 38154 ft 502 kts 351°
2026-05-03 21:44 41.99748 1.08139 38372 ft 500 kts 351°
2026-05-03 21:44 42.03182 1.07774 38569 ft 499 kts 351°
2026-05-03 21:44 42.10125 1.07030 38755 ft 501 kts 351°
2026-05-03 21:45 42.13596 1.06657 38930 ft 499 kts 351°
2026-05-03 21:45 42.17065 1.06284 39075 ft 499 kts 351°
2026-05-03 21:45 42.23993 1.05538 39211 ft 500 kts 351°
2026-05-03 21:46 42.30936 1.04788 38976 ft 510 kts 351°
2026-05-03 21:46 42.34509 1.04399 38624 ft 518 kts 351°
2026-05-03 21:46 42.38114 1.04008 38261 ft 523 kts 351°
2026-05-03 21:47 42.41745 1.03616 38064 ft 524 kts 351°
2026-05-03 21:47 42.45399 1.03223 38025 ft 522 kts 351°
2026-05-03 21:47 42.52581 1.02447 38026 ft 519 kts 351°
2026-05-03 21:48 42.59797 1.01660 38029 ft 519 kts 351°
2026-05-03 21:48 42.66985 1.00874 38021 ft 518 kts 351°
2026-05-03 21:49 42.74163 1.00087 38027 ft 519 kts 351°
2026-05-03 21:49 42.81303 0.99304 37991 ft 519 kts 351°
2026-05-03 21:50 42.88537 0.98508 37872 ft 521 kts 351°
2026-05-03 21:50 42.95712 0.97720 37920 ft 520 kts 351°
2026-05-03 21:51 43.02919 0.96925 37866 ft 520 kts 351°
2026-05-03 21:51 43.10156 0.96124 37856 ft 520 kts 351°
2026-05-03 21:52 43.17391 0.95322 37827 ft 521 kts 351°
2026-05-03 21:52 43.24589 0.94521 37780 ft 521 kts 351°
2026-05-03 21:53 43.31824 0.93715 37733 ft 522 kts 351°
2026-05-03 21:53 43.39036 0.92910 37766 ft 522 kts 351°
2026-05-03 21:54 43.46279 0.92100 37743 ft 522 kts 351°
2026-05-03 21:54 43.53515 0.91288 37713 ft 523 kts 351°
2026-05-03 21:55 43.60733 0.90476 37746 ft 522 kts 351°
2026-05-03 21:55 43.67979 0.89659 37707 ft 523 kts 351°
2026-05-03 21:56 43.75211 0.88842 37740 ft 523 kts 351°
2026-05-03 21:56 43.82431 0.88024 37748 ft 523 kts 351°
2026-05-03 21:57 43.89592 0.86605 37593 ft 516 kts 338°
2026-05-03 21:57 43.96159 0.82865 37586 ft 509 kts 329°
2026-05-03 21:58 44.02531 0.78601 37570 ft 510 kts 329°
2026-05-03 21:58 44.08915 0.74377 37726 ft 507 kts 330°
2026-05-03 21:59 44.12128 0.72281 37890 ft 505 kts 330°
2026-05-03 21:59 44.15279 0.70232 37912 ft 506 kts 330°
2026-05-03 21:59 44.21686 0.66069 37941 ft 507 kts 330°
2026-05-03 22:00 44.28041 0.61936 37945 ft 509 kts 330°
2026-05-03 22:00 44.34473 0.57743 37934 ft 509 kts 330°
2026-05-03 22:01 44.40841 0.53580 37941 ft 510 kts 330°
2026-05-03 22:01 44.47283 0.49349 37928 ft 510 kts 330°
2026-05-03 22:02 44.53682 0.45110 37940 ft 510 kts 330°
2026-05-03 22:02 44.60118 0.40835 37934 ft 511 kts 329°
2026-05-03 22:03 44.66493 0.36593 37939 ft 511 kts 330°
2026-05-03 22:03 44.72920 0.32273 37952 ft 511 kts 328°
2026-05-03 22:04 44.79321 0.27913 37946 ft 511 kts 329°
2026-05-03 22:04 44.85731 0.23585 37957 ft 512 kts 329°
2026-05-03 22:05 44.92119 0.19289 37948 ft 512 kts 329°
2026-05-03 22:05 44.98569 0.14946 37951 ft 513 kts 329°
2026-05-03 22:06 45.04968 0.10626 37958 ft 514 kts 329°
2026-05-03 22:06 45.11416 0.06261 37949 ft 513 kts 329°
2026-05-03 22:07 45.17883 0.01870 37957 ft 513 kts 329°
2026-05-03 22:07 45.24287 -0.02490 37959 ft 514 kts 329°
2026-05-03 22:08 45.30767 -0.06910 37949 ft 514 kts 329°
2026-05-03 22:08 45.37201 -0.11310 37943 ft 515 kts 329°
2026-05-03 22:09 45.43686 -0.15756 37941 ft 515 kts 329°
2026-05-03 22:10 45.53342 -0.22398 37962 ft 516 kts 329°
2026-05-03 22:10 45.59826 -0.26871 37944 ft 516 kts 329°
2026-05-03 22:11 45.66268 -0.31355 37856 ft 518 kts 328°
2026-05-03 22:11 45.69482 -0.33637 37693 ft 521 kts 328°
2026-05-03 22:11 45.72739 -0.35995 37404 ft 523 kts 325°
2026-05-03 22:11 45.75722 -0.38915 37040 ft 516 kts 313°
2026-05-03 22:12 45.78242 -0.42463 36710 ft 512 kts 307°
2026-05-03 22:12 45.80698 -0.46237 36443 ft 515 kts 308°
2026-05-03 22:12 45.83225 -0.49852 36229 ft 519 kts 310°
2026-05-03 22:12 45.85894 -0.53327 36014 ft 524 kts 313°
2026-05-03 22:13 45.88691 -0.56717 35811 ft 527 kts 314°
2026-05-03 22:13 45.91553 -0.60038 35615 ft 528 kts 315°
2026-05-03 22:13 45.94412 -0.63290 35471 ft 527 kts 315°
2026-05-03 22:13 45.97290 -0.66545 35615 ft 521 kts 315°
2026-05-03 22:14 46.00079 -0.69742 35917 ft 514 kts 314°
2026-05-03 22:14 46.02856 -0.72960 36157 ft 508 kts 314°
2026-05-03 22:14 46.05645 -0.76054 36441 ft 508 kts 321°
2026-05-03 22:14 46.08800 -0.78385 36873 ft 512 kts 333°
2026-05-03 22:15 46.12247 -0.79776 37266 ft 515 kts 346°
2026-05-03 22:15 46.15772 -0.80157 37686 ft 516 kts 358°
2026-05-03 22:15 46.19352 -0.79515 38131 ft 514 kts 10°
2026-05-03 22:15 46.22716 -0.77889 38571 ft 511 kts 22°
2026-05-03 22:16 46.25763 -0.75364 38944 ft 505 kts 35°
2026-05-03 22:16 46.28409 -0.72090 39264 ft 500 kts 44°
2026-05-03 22:16 46.30872 -0.68566 39584 ft 494 kts 44°